Powrót do katalogu

SL-14 DEB

AktywnyPO
NORAD 45324·DEBRIS·🇷🇺 Russia

Wystrzelony Aug 15, 1991 z Plesetsk Cosmodrome

Loading…

Następne Przeloty (najbliższe 24 godziny)

TLE

ŚwieżeSource: Space-Track

Epoka: Sep 12, 2026, 17:01 UTC

1 45324U 91056BN  26255.70969304  .00000132  00000-0  29351-3 0  9996
2 45324  82.5425  64.6254 0025658 201.0783 158.9287 13.21063577317073

Śledź SL-14 DEB w czasie rzeczywistym z AllMySat

Download on the App Store